Вернуться в каталог

FENGYUN 1C DEB

АктивенSSO
NORAD 38159·DEBRIS·🇨🇳 China

Запущен May 10, 1999 с Taiyuan Satellite Launch Center

Loading…

Ближайшие Пролёты (ближайшие 24 часа)

TLE

УстаревшееSource: Space-Track

Эпоха: Aug 31, 2026, 12:10 UTC

1 38159U 99025ERG 26243.50695702  .00000549  00000-0  37318-3 0  9995
2 38159  99.2924 146.2234 0056481 340.8724  19.0320 14.03807553867841

Отслеживайте FENGYUN 1C DEB в реальном времени с AllMySat

Download on the App Store